Total_Precipitation_Accumulation
3.06 3.27 3.21 3.02 3.07 3.16 3.42 3.74 3.83 3.54 3.33 3.15 2.83 2.68 2.75 2.79 2.92 2.75 2.82 2.73 2.27 1.99 1.93 2.01 1.98 1.93 1.99 2.13 2.36 2.66 2.86 2.96 3.14 3.42 3.81 4.18 4.50 4.86
3.30 3.38 3.22 2.96 3.14 3.15 3.27 3.63 3.96 4.03 3.64 3.08 2.84 2.75 2.87 2.66 2.71 2.44 2.48 2.38 2.03 1.83 1.71 1.73 1.70 1.62 1.61 1.66 1.78 2.04 2.24 2.42 2.58 2.72 2.93 3.22 3.53 3.78
3.20 3.12 3.02 3.08 3.28 3.20 3.33 3.50 3.77 4.04 3.68 3.19 3.03 3.02 3.13 3.03 2.84 2.47 2.18 2.05 1.88 1.93 1.76 1.61 1.58 1.55 1.57 1.63 1.68 1.78 1.95 2.15 2.33 2.48 2.65 2.85 3.01 3.17
3.15 3.15 2.99 3.12 3.22 3.20 3.28 3.25 3.37 3.74 3.61 3.31 3.21 3.26 3.20 3.06 2.96 2.74 2.31 2.08 2.08 2.16 1.92 1.75 1.67 1.66 1.56 1.54 1.61 1.69 1.81 1.95 2.11 2.22 2.26 2.31 2.47 2.73
3.13 3.06 2.92 3.04 2.92 2.99 3.03 3.03 3.03 3.18 3.40 3.27 3.11 3.21 3.13 3.01 2.99 2.84 2.70 2.77 2.48 2.27 2.09 1.88 1.77 1.74 1.67 1.55 1.57 1.66 1.76 1.80 1.81 1.95 2.09 2.19 2.23 2.31
2.74 2.67 2.70 2.86 2.95 2.97 2.87 2.83 2.91 3.07 3.19 3.23 3.15 3.23 3.25 3.28 3.21 3.08 3.07 2.99 2.77 2.25 2.15 1.92 1.79 1.69 1.62 1.51 1.53 1.67 1.77 1.82 1.84 1.81 1.88 1.99 2.08 2.17
2.45 2.29 2.33 2.68 2.84 2.83 2.62 2.76 2.87 2.92 2.99 3.13 3.14 3.22 3.31 3.56 3.37 3.12 3.04 3.13 2.96 2.66 2.44 2.13 1.98 1.85 1.79 1.70 1.61 1.58 1.59 1.68 1.78 1.90 2.03 2.14 2.20 2.25
2.19 2.15 2.14 2.23 2.27 2.33 2.35 2.40 2.49 2.58 2.80 3.13 3.19 3.15 3.11 3.22 3.38 3.36 3.31 3.24 3.12 2.94 2.95 2.78 2.43 2.35 2.20 1.99 1.85 1.56 1.36 1.40 1.55 1.69 1.95 2.22 2.48 2.56
2.16 2.24 1.92 1.74 1.95 1.97 2.15 2.16 2.09 2.20 2.37 2.67 2.87 2.86 2.99 3.03 3.38 3.41 3.48 3.48 3.39 3.32 3.33 3.30 2.93 2.60 2.28 2.13 2.04 1.66 1.46 1.37 1.41 1.51 1.65 1.88 2.20 2.54
2.05 2.10 2.04 1.92 1.91 2.06 2.17 2.11 1.95 1.92 1.94 1.92 2.13 2.45 2.75 3.07 3.20 3.30 3.46 3.54 3.53 3.34 3.25 3.26 3.03 2.83 2.43 2.13 1.99 1.76 1.55 1.40 1.35 1.41 1.43 1.50 1.66 1.93
1.99 1.94 1.90 1.83 1.97 1.90 1.85 1.84 1.86 1.85 1.75 1.76 1.82 2.05 2.32 2.45 2.69 2.97 3.21 3.23 3.12 2.90 2.75 2.83 2.83 2.83 2.74 2.46 2.06 1.93 1.69 1.49 1.42 1.41 1.39 1.39 1.48 1.61
1.98 1.93 1.83 1.68 1.72 1.66 1.58 1.71 1.72 1.74 1.86 1.82 1.69 1.68 1.76 1.97 2.13 2.20 2.55 2.81 2.68 2.58 2.34 2.32 2.27 2.48 2.66 2.36 2.04 1.94 1.87 1.74 1.58 1.51 1.47 1.43 1.49 1.39
2.01 1.92 1.85 1.76 1.57 1.55 1.50 1.52 1.61 1.68 1.80 1.87 1.81 1.71 1.81 1.96 1.93 1.92 2.14 2.45 2.55 2.30 2.14 2.36 2.27 2.26 2.27 2.12 1.95 1.80 1.81 1.92 1.88 1.73 1.64 1.59 1.59 1.54
2.16 2.11 2.03 1.85 1.62 1.56 1.46 1.43 1.46 1.39 1.38 1.56 1.63 1.58 1.63 1.74 1.82 1.84 1.95 2.08 2.23 2.19 2.25 2.42 2.44 2.40 2.31 2.12 1.96 1.80 1.68 1.73 1.88 2.09 2.18 2.21 2.02 1.94
2.16 2.28 2.06 1.82 1.65 1.46 1.46 1.50 1.41 1.28 1.34 1.41 1.42 1.43 1.44 1.56 1.81 2.02 2.13 2.23 2.23 2.04 1.91 2.02 2.17 2.38 2.45 2.18 1.89 1.82 1.85 1.77 1.80 2.01 2.17 2.25 2.29 2.30
2.04 2.15 2.04 1.86 1.69 1.55 1.50 1.48 1.38 1.40 1.51 1.49 1.50 1.57 1.62 1.71 1.84 1.94 2.11 2.29 2.31 2.02 1.91 1.95 2.09 2.34 2.37 2.14 2.00 1.87 1.95 2.05 1.90 2.04 2.28 2.35 2.34 2.38
2.23 2.18 2.12 1.98 1.83 1.71 1.66 1.68 1.71 1.72 1.69 1.70 1.75 1.76 1.76 1.80 1.88 1.98 2.10 2.21 2.18 1.95 1.82 1.95 2.09 2.34 2.38 2.34 2.23 1.96 1.95 2.00 1.97 2.07 2.34 2.38 2.34 2.35
2.22 2.09 2.18 2.12 1.97 1.88 1.85 1.84 1.85 1.81 1.80 1.87 1.86 1.85 1.83 1.86 1.91 1.97 2.03 2.02 2.02 2.00 1.94 1.95 2.17 2.40 2.48 2.27 1.96 1.85 1.81 1.77 1.91 2.14 2.24 2.24 2.04 1.96
1.86 1.87 1.99 2.01 1.91 1.87 1.84 1.81 1.76 1.82 1.91 1.87 1.85 1.88 1.89 1.88 1.96 2.02 2.07 2.11 2.06 2.02 2.04 2.11 2.21 2.29 2.27 2.01 1.74 1.59 1.68 1.74 1.90 2.05 2.08 2.04 1.89 1.83
1.63 1.70 1.76 1.83 1.85 1.86 1.88 1.89 1.82 1.84 1.86 1.86 1.85 1.88 1.92 1.91 1.96 1.99 1.97 2.03 2.13 2.16 2.18 2.10 2.08 2.10 2.07 2.06 1.97 1.76 1.63 1.81 1.95 1.96 1.90 1.90 1.86 1.83
1.50 1.55 1.60 1.62 1.66 1.72 1.73 1.80 1.82 1.79 1.80 1.84 1.81 1.83 1.88 1.90 1.94 1.95 1.94 2.02 2.08 2.12 2.12 2.01 2.00 2.22 2.34 2.39 2.19 1.90 1.84 1.88 1.98 2.00 2.02 2.07 1.98 1.89
1.54 1.55 1.53 1.54 1.58 1.65 1.72 1.79 1.82 1.84 1.89 1.89 1.87 1.89 1.94 1.97 1.98 2.01 2.03 2.05 2.04 2.04 2.06 2.11 2.23 2.40 2.49 2.42 2.20 2.09 2.15 2.13 2.16 2.13 2.01 2.00 1.86 1.69
1.50 1.49 1.47 1.46 1.50 1.60 1.69 1.76 1.82 1.89 1.89 1.92 1.98 1.96 1.90 1.89 1.89 1.96 1.98 2.03 2.09 2.16 2.27 2.30 2.29 2.30 2.31 2.34 2.29 2.20 2.12 2.18 2.25 2.21 1.98 1.88 1.72 1.48